STARLINK-32843, 62814

Orbit data source: Space-Track

STARLINK-32843, 62814 is a payload satellite owned by SpaceX/Seattle (US) in LEO that was launched on Fri, 24 Jan 2025 UTC via an FALCON 9 launch vehicle from the Air Force Western Test Range (AFWTR). Payload-class satellites include a variety of spacecraft equipped with specific instruments for various scientific and technological missions. These include communications satellites like Starlink; space stations such as the ISS; scientific satellites like the Hubble; Earth observation satellites from companies like Planet Labs, Umbra, and HawkEye 360; GPS; miniature CubeSats for education and research; and military/defense satellites.

Loading next visibility...
Identifier
62814, 2025-018J
Orbit
LEO
Last TLE update
9 hours ago
Origin
Manufacturer
SpaceX/Seattle
Mission
Operational Commercial Communications
Bus & Motor
STARLINK V2M, Unknown motor
Mass
730 kg wet, ~700 kg dry
Launch date (UTC)
2025-01-24 (6 months ago)
Launch vehicle
FALCON 9
Launch site
Air Force Western Test Range (AFWTR)
Object type
Payload
Rocket body
Debris
Shape & HBR
Box + 2 Pan, 29 m
Radar Cross Section
33.884 m², Large (>1 m²)

Expand to show TLE details & history

TLE from 9 hours ago
0 STARLINK-32843
1 62814U 25018J   25191.61224912 -.00031645  00000-0 -10607-2 0  9999
2 62814  53.1574 354.1409 0001236  43.4333 316.6765 15.30203715 26106
Epoch: 2025-07-10T14:41Z
TLE epoch observation values (Epoch: 2025-07-10T14:41:38.323Z)
Latitude
-0.00004°
Longitude
-155.04484°
Altitude
475.487 km
Speed
7.63 km/s
True Right ascension
23h 36m 33s
True Declination
0° 00' 00"
Sunlit
Object was in full shadow at epoch
Visualization orbit readout
Latitude
-53.23659°
Longitude
109.04415°
Altitude
494.413 km
Speed
7.617 km/s
Apparent Right ascension
20h 59m 21s
Apparent Declination
-58° 56' 13"
Sunlit
Object is in full shadow
Visualization observer readout
Local Sidereal Time
11:57:52
Azimuth
139.297° SSE
Elevation
-56.233°
Doppler factor
1
Orbital elements
Apogee altitude
476.308 km
Perigee altitude
474.614 km
Semi-major axis
6,853.598 km
Eccentricity
0.00012
Inclination
53.1574°
RAAN
354.1409°
Arg. of periapsis
43.4333°
True anomaly
Unknown
Mean anomaly
316.6765°
Eccentric anomaly
Unknown
Mean motion
3.8253 °/min
Orbital period
94.11 mins
BSTAR
-0.0010607
Loading maneuver chart data...
Loading SW <> Apogee altitude chart data...
Loading historical data...
Loading historical data...
Loading historical data...
Loading historical data...
Loading historical data...
Loading historical data...
Loading historical data...

STARLINK-32843 Visibility forecast

Observer location: undefined°, undefined°

Span
Click to sort rows by Start time (UTC) header in descending order
Start Az.
Max El. time (UTC)
Max El. Az.
Max El.
End time (UTC)
End Az.
6 mins2025-07-11 12:47:45.795Z193.504° SSW2025-07-11 12:50:45.795Z128.211° SE27.979°2025-07-11 12:53:45.795Z69.291° E
5 mins2025-07-11 14:26:45.795Z280.35° WNW2025-07-11 14:28:45.795Z337.088° NNW27.887°2025-07-11 14:31:45.795Z33.698° NE
5 mins2025-07-11 19:23:45.795Z343.457° N2025-07-11 19:25:45.795Z40.891° NE27.629°2025-07-11 19:28:45.795Z95.795° ESE
4 mins2025-07-11 21:01:45.795Z273.564° WNW2025-07-11 21:03:45.795Z213.789° SW27.725°2025-07-11 21:05:45.795Z170.916° S
|